Location: Arbon
(43.0005°N, 0.7472°E)
Time: 14:21:03
(UTC+00:00)

Envisat - Pass Details

Date: 03 November 2020
Orbit: 764 x 766 km, 98.1° (Epoch: 30 November)

Event Time Altitude Azimuth Distance (km) Brightness Sun altitude
Rises 04:21:08 0° 37° (NE) 3,239 6.8 -24.7°
Reaches altitude 10° 04:26:18 10° 82° (E) 2,303 6.6 -23.8°
Maximum altitude 04:26:43 10° 87° (E) 2,296 6.6 -23.7°
Drops below altitude 10° 04:27:07 10° 91° (E) 2,302 6.6 -23.7°
Sets 04:32:14 0° 136° (SE) 3,218 6.9 -22.7°
